[[{"header":{"parameterUnit":"m.s-1","parameterCategory":1,"la1":30.2991,"la2":30.254,"lo1":-89.0895,"lo2":-89.0444,"dy":0.0017,"dx":0.0017,"nx":28,"ny":28,"refTime":"2024-02-21T03:00:00:Z","depth":0,"parameterNumber":2,"parameterNumberName":"U-component_of_WINDS"},"data":[0,0,0,0,0,0,0,0,0,0,0,0,0,0,0,0,0,0,0,0,0,0,0,0,0,0,0,0,0,0,0,0,0,0,0,0,0,0,0,0,0,0,0,0,0,0,0,0,0,0,0,0,0,0,0,0,0,0,0.8311,0.8312,0,0.8389,0.8389,0.839,0.8397,0.8396,0.8395,0.8394,0.8479,0.8482,0.8485,0,0,0,0,0,0,0,0,0,0,0,0,0,0.8174,0.8177,0.8311,0.8312,0.8313,0.8388,0.8389,0.8391,0.8397,0.8396,0.8395,0.8394,0.8478,0.8481,0.8485,0,0,0,0,0,0,0,0,0,0,0,0,0,0.8241,0.8178,0.8311,0.8325,0.8327,0.8388,0.8389,0.8391,0.8397,0.8396,0.8395,0.8393,0.8477,0.8481,0.8486,0.8539,0,0,0.85,0.8502,0,0,0,0,0,0,0,0,0.8237,0.8246,0.8322,0.8324,0.8327,0.8382,0.8372,0.8441,0.8397,0.8371,0.8394,0.8393,0.8448,0.8455,0.8472,0.8543,0.8547,0.85,0.8503,0.8505,0.8506,0,0,0,0,0,0,0,0.8233,0.8243,0.8342,0.8323,0.8326,0.8329,0.8338,0.8385,0.8416,0.8373,0.8374,0.8382,0.8449,0.8468,0.8474,0.8548,0.85,0.8504,0.8507,0.8509,0.8667,0.8669,0,0,0,0,0,0,0.8224,0.8239,0.8339,0.8344,0.8278,0.8333,0.8342,0.8365,0.8415,0.8421,0.8383,0.8382,0.8461,0.8469,0.8477,0.8543,0.8505,0.8509,0.8512,0.8666,0.8667,0.8669,0,0,0,0,0,0,0.8222,0.8233,0.8336,0.8292,0.8305,0.8337,0.8363,0.8368,0.8386,0.8423,0.8429,0.8397,0.846,0.8471,0.8523,0.8546,0.8511,0.8515,0.8664,0.8666,0.8668,0.8674,0,0,0,0,0,0,0.8218,0.8232,0.8252,0.8292,0.8307,0.8379,0.8364,0.837,0.8393,0.8393,0.8437,0.8443,0.846,0.8516,0.8528,0.8551,0.8519,0.8662,0.8665,0.8668,0.8672,0.8676,0.868,0,0,0,0,0,0.8213,0.8251,0.8253,0.8265,0.8332,0.8381,0.839,0.8406,0.8395,0.8416,0.8439,0.8442,0.8542,0.8522,0.8535,0.856,0.8661,0.8664,0.8667,0.867,0.8676,0.868,0,0,0,0,0,0,0.8215,0.8257,0.8259,0.8311,0.8342,0.8382,0.8408,0.8411,0.8447,0.8446,0.8467,0.8477,0.8528,0.855,0.8527,0.8615,0.86,0.8606,0.8598,0.8603,0.8607,0.8601,0.8523,0,0,0,0,0,0.8221,0.8255,0.8291,0.8334,0.835,0.8376,0.8398,0.8408,0.8442,0.8455,0.8483,0.8517,0.8556,0.8581,0.8619,0.8676,0.8686,0.87,0.8704,0.8707,0.8711,0.8743,0.8749,0.868,0.868,0.868,0,0,0.8235,0.8262,0.8283,0.8335,0.836,0.8397,0.8387,0.8426,0.8454,0.8462,0.8512,0.8534,0.8573,0.8628,0.8653,0.8647,0.8733,0.8711,0.8713,0.8716,0.8747,0.8753,0.8759,0.8682,0.8682,0.8681,0,0,0.8278,0.8302,0.834,0.8365,0.8403,0.842,0.843,0.8469,0.8483,0.8533,0.854,0.8575,0.8641,0.8669,0.8692,0.8746,0.8749,0.8758,0.8778,0.8809,0.8814,0.8819,0.8838,0.8844,0.8763,0.8763,0.8763,0,0.8291,0.8344,0.836,0.8399,0.8422,0.8429,0.8469,0.8493,0.8542,0.8559,0.8551,0.8634,0.8662,0.8722,0.8736,0.8754,0.8766,0.8753,0.8812,0.8817,0.8822,0.884,0.8847,0.8764,0.8764,0.8764,0.8764,0,0.8358,0.8395,0.8422,0.8466,0.8493,0.8532,0.8555,0.8581,0.8589,0.8608,0.866,0.8693,0.8737,0.8753,0.8762,0.8815,0.881,0.8807,0.8793,0.8829,0.8846,0.8853,0.8765,0.8764,0.8764,0.8764,0,0,0.8403,0.8456,0.8466,0.8486,0.8528,0.8558,0.8598,0.864,0.8661,0.8695,0.873,0.8786,0.8783,0.8809,0.8822,0.8849,0.8889,0.8842,0.8843,0.8849,0.8949,0.895,0.8958,0.8892,0.8893,0.8895,0.8946,0,0.845,0.8519,0.8535,0.8595,0.863,0.8638,0.8673,0.8704,0.8723,0.8757,0.8779,0.8818,0.8811,0.8827,0.8854,0.8878,0.8909,0.8875,0.8925,0.8926,0.8913,0.8968,0.8969,0.9016,0.8953,0.8954,0.8955,0,0.8514,0.8547,0.861,0.8648,0.8663,0.8694,0.8733,0.8765,0.8801,0.8813,0.8842,0.8852,0.8895,0.888,0.894,0.8916,0.8938,0.8954,0.8956,0.896,0.8942,0.8973,0.9031,0.9038,0.8966,0.8965,0.8964,0,0.854,0.8601,0.8646,0.8664,0.8709,0.873,0.875,0.8784,0.8809,0.8844,0.886,0.8901,0.8924,0.8956,0.8977,0.8964,0.9036,0.9022,0.9048,0.9047,0.9062,0.906,0.9123,0.9077,0.9077,0.9077,0.9077,0,0.859,0.8628,0.8658,0.8686,0.8729,0.8748,0.8791,0.8812,0.8842,0.8875,0.8886,0.8917,0.8944,0.8979,0.8997,0.9044,0.9054,0.9066,0.907,0.9064,0.9062,0.9078,0.9075,0.9079,0.9079,0.9078,0.9078,0,0.8625,0.8647,0.8697,0.8735,0.8746,0.8776,0.881,0.8838,0.8857,0.8899,0.891,0.8941,0.8983,0.9008,0.9062,0.9073,0.9126,0.9129,0.9113,0.9114,0.9138,0.9135,0.9212,0.9223,0.9171,0.9171,0.9172,0,0.8655,0.8684,0.8726,0.8748,0.8768,0.8803,0.8828,0.8848,0.8874,0.8916,0.8939,0.8982,0.9016,0.9084,0.9112,0.9153,0.9157,0.9181,0.9163,0.9157,0.9156,0.9154,0.9157,0.9184,0.9184,0.9185,0.9185,0,0.8706,0.8715,0.8749,0.8786,0.8815,0.8846,0.8877,0.8895,0.8921,0.8949,0.8991,0.9018,0.9072,0.9114,0.9158,0.9181,0.9188,0.9191,0.9199,0.9192,0.9181,0.9187,0.912,0.9189,0.9188,0.9188,0.9188,0.9188,0.8739,0.8765,0.8798,0.8835,0.886,0.8889,0.8917,0.894,0.8975,0.9019,0.903,0.9074,0.911,0.9169,0.9193,0.9229,0.9225,0.9236,0.9239,0.9242,0.9242,0.9177,0.9237,0.9237,0.9237,0.9237,0.9237,0,0.8789,0.881,0.8845,0.8887,0.8917,0.8919,0.8954,0.8979,0.9017,0.9049,0.9083,0.9132,0.9173,0.9204,0.9247,0.927,0.9274,0.928,0.9278,0.9283,0.9243,0.9231,0.9276,0.9276,0.9276,0.9276,0.9276,0.9276,0.8818,0.8862,0.8876,0.8933,0.8955,0.8997,0.9016,0.9044,0.9069,0.9122,0.9156,0.9176,0.9208,0.9253,0.9291,0.9299,0.9314,0.932,0.9328,0.929,0.9286,0.9282,0.9271,0.9323,0.9323,0.9365,0.9366,0.9366]},{"header":{"parameterUnit":"m.s-1","parameterCategory":1,"la1":30.2991,"la2":30.254,"lo1":-89.0895,"lo2":-89.0444,"dy":0.0017,"dx":0.0017,"nx":28,"ny":28,"refTime":"2024-02-21T03:00:00:Z","depth":0,"parameterNumber":3,"parameterNumberName":"V-component_of_WINDS"},"data":[0,0,0,0,0,0,0,0,0,0,0,0,0,0,0,0,0,0,0,0,0,0,0,0,0,0,0,0,0,0,0,0,0,0,0,0,0,0,0,0,0,0,0,0,0,0,0,0,0,0,0,0,0,0,0,0,0,0,3.4525,3.4526,0,3.457,3.4571,3.4571,3.4565,3.4565,3.4564,3.4563,3.4604,3.4606,3.4608,0,0,0,0,0,0,0,0,0,0,0,0,0,3.4427,3.4429,3.4525,3.4526,3.4526,3.457,3.4571,3.4572,3.4566,3.4565,3.4564,3.4563,3.4604,3.4606,3.4608,0,0,0,0,0,0,0,0,0,0,0,0,0,3.4471,3.443,3.4525,3.4529,3.453,3.457,3.4571,3.4572,3.4566,3.4565,3.4564,3.4563,3.4603,3.4605,3.4608,3.4646,0,0,3.4616,3.4617,0,0,0,0,0,0,0,0,3.4468,3.4474,3.4528,3.4529,3.453,3.4561,3.4551,3.4597,3.4566,3.4552,3.4563,3.4562,3.459,3.4594,3.4605,3.4648,3.465,3.4616,3.4618,3.4619,3.462,0,0,0,0,0,0,0,3.4465,3.4472,3.4543,3.4528,3.453,3.4526,3.4531,3.456,3.4576,3.4553,3.4553,3.4558,3.4591,3.4602,3.4606,3.4651,3.4616,3.4619,3.462,3.4621,3.4725,3.4726,0,0,0,0,0,0,3.4462,3.447,3.4542,3.4544,3.4496,3.4529,3.4534,3.4552,3.4576,3.4579,3.4559,3.4558,3.4598,3.4603,3.4607,3.4652,3.4619,3.4622,3.4623,3.4724,3.4725,3.4727,0,0,0,0,0,0,3.446,3.4469,3.454,3.4507,3.4516,3.4532,3.4552,3.4554,3.4565,3.4581,3.4583,3.4568,3.4597,3.4603,3.4636,3.4653,3.4623,3.4625,3.4723,3.4724,3.4726,3.4742,0,0,0,0,0,0,3.4457,3.4468,3.4484,3.4508,3.4518,3.457,3.4553,3.4555,3.457,3.4569,3.459,3.4593,3.4597,3.4632,3.4639,3.4656,3.4627,3.4721,3.4723,3.4725,3.474,3.4744,3.4748,0,0,0,0,0,3.4454,3.4486,3.4485,3.4494,3.4539,3.4571,3.4577,3.4583,3.4572,3.4587,3.4597,3.4592,3.4651,3.4636,3.4643,3.4661,3.472,3.4723,3.4725,3.4739,3.4744,3.4748,0,0,0,0,0,0,3.4463,3.449,3.4488,3.453,3.4549,3.457,3.459,3.4588,3.4609,3.4607,3.4612,3.4616,3.4649,3.4659,3.4642,3.4699,3.4683,3.4688,3.4691,3.4696,3.47,3.4696,3.4629,0,0,0,0,0,3.447,3.4496,3.4517,3.4552,3.4561,3.4574,3.4588,3.4592,3.461,3.4618,3.463,3.4647,3.4669,3.4683,3.4704,3.4742,3.4745,3.4758,3.4762,3.4765,3.4768,3.4786,3.4792,3.4735,3.4735,3.4735,0,0,3.4484,3.4502,3.4518,3.4554,3.4569,3.4593,3.4581,3.4608,3.4625,3.4621,3.4653,3.4663,3.4682,3.4717,3.4733,3.4726,3.4784,3.4768,3.4771,3.4772,3.479,3.4795,3.48,3.4737,3.4737,3.4736,0,0,3.4523,3.454,3.457,3.4585,3.4608,3.4616,3.4623,3.4645,3.4652,3.4685,3.4681,3.4701,3.474,3.4753,3.4765,3.4807,3.4802,3.4814,3.4833,3.4851,3.4855,3.4859,3.4872,3.4877,3.4817,3.4817,3.4817,0,3.4537,3.4576,3.4585,3.4612,3.4627,3.4626,3.4654,3.4668,3.4696,3.4705,3.4697,3.4745,3.4757,3.4794,3.4805,3.4815,3.4821,3.4811,3.4854,3.4858,3.4862,3.4875,3.488,3.4818,3.4818,3.4818,3.4818,0,3.4592,3.4619,3.464,3.4668,3.4685,3.4713,3.4723,3.4739,3.4741,3.4749,3.4781,3.4796,3.482,3.4829,3.483,3.4866,3.486,3.4854,3.4838,3.4868,3.488,3.4885,3.482,3.4819,3.4819,3.4819,0,0,3.4637,3.4669,3.4677,3.4689,3.4714,3.4734,3.4761,3.4785,3.4798,3.4817,3.4838,3.487,3.4864,3.4877,3.4879,3.4895,3.4925,3.4886,3.4887,3.4891,3.4963,3.4967,3.4973,3.4923,3.4924,3.4925,3.4961,0,3.4676,3.4725,3.4733,3.4775,3.4799,3.4798,3.4821,3.4837,3.4845,3.4865,3.4873,3.4895,3.4886,3.4894,3.491,3.4919,3.494,3.4916,3.494,3.4941,3.4934,3.4979,3.4984,3.5017,3.4966,3.4967,3.4967,0,3.4728,3.475,3.4795,3.4816,3.4826,3.4847,3.4869,3.4889,3.4907,3.4911,3.4926,3.4926,3.4952,3.4936,3.497,3.4954,3.4964,3.497,3.4971,3.4972,3.4955,3.4979,3.5028,3.5032,3.4975,3.4974,3.4974,0,3.4754,3.4795,3.4827,3.4837,3.4863,3.4877,3.4888,3.4905,3.4918,3.4937,3.4946,3.4967,3.4978,3.4993,3.4999,3.4988,3.5031,3.5017,3.5034,3.5034,3.5042,3.5041,3.509,3.5051,3.5051,3.5051,3.5051,0,3.4796,3.4823,3.4838,3.4858,3.4887,3.4895,3.4923,3.4933,3.4948,3.4968,3.4968,3.4986,3.4993,3.5011,3.5015,3.5041,3.5047,3.5049,3.505,3.5048,3.5048,3.5054,3.5051,3.5053,3.5052,3.5052,3.5052,0,3.4829,3.4841,3.4875,3.4896,3.4902,3.4923,3.494,3.4957,3.4966,3.499,3.4996,3.5008,3.503,3.5037,3.5063,3.5066,3.5096,3.5095,3.509,3.509,3.5105,3.5103,3.5159,3.5166,3.5124,3.5125,3.5125,0,3.4855,3.4876,3.4899,3.4913,3.4925,3.4947,3.4962,3.4969,3.4984,3.5005,3.502,3.5042,3.5059,3.5094,3.5103,3.5123,3.5121,3.514,3.5124,3.5122,3.5119,3.5117,3.5118,3.5142,3.5142,3.5143,3.5143,0,3.4898,3.4902,3.4924,3.4947,3.4964,3.4982,3.5,3.5011,3.5021,3.5036,3.5059,3.5073,3.51,3.5121,3.5141,3.515,3.5147,3.5148,3.5153,3.5151,3.5146,3.5147,3.5096,3.5146,3.5146,3.5146,3.5146,3.5145,3.4926,3.4944,3.4963,3.4987,3.5001,3.5017,3.5034,3.5045,3.5065,3.5088,3.5091,3.5115,3.5131,3.5157,3.5167,3.5185,3.5179,3.5186,3.5188,3.5189,3.5189,3.5145,3.5188,3.5188,3.5188,3.5188,3.5188,0,3.4967,3.498,3.5001,3.5026,3.5044,3.5043,3.5062,3.5076,3.5098,3.5113,3.5131,3.5156,3.5176,3.5188,3.5208,3.5219,3.5219,3.5224,3.5222,3.5224,3.5194,3.5187,3.5224,3.5224,3.5224,3.5224,3.5224,3.5224,3.4991,3.502,3.5027,3.5063,3.5075,3.5099,3.511,3.5124,3.5137,3.5165,3.5183,3.5191,3.5204,3.5225,3.5242,3.5245,3.5251,3.5257,3.5259,3.523,3.5226,3.5223,3.5216,3.5259,3.5259,3.5287,3.5287,3.5287]}]]